Regional Weather Roundup
Issued by NWS

Home | Current Version | Previous Version | Text Only | Print | Product List | Glossary On
Versions: 1 2 3 4 5 6 7 8 9 10 11 12 13 14 15 16 17 18 19 20 21 22 23 24 25 26 27 28 29 30 31 32 33 34 35 36 37 38 39 40 41 42 43 44 45 46 47 48 49 50
000
ASUS43 KDTX 011210
RWRMI
MICHIGAN HOURLY REGIONAL WEATHER ROUNDUP
NATIONAL WEATHER SERVICE DETROIT/PONTIAC MI
700 AM EST SUN FEB 01 2015

NOTE: "FAIR" INDICATES FEW OR NO CLOUDS BELOW 12,000 FEET WITH NO
SIGNIFICANT WEATHER AND/OR OBSTRUCTION TO VISIBILITY.

MIZ047>049-052>055-059>063-066>070-074>076-081>083-011300-
SOUTHEAST LOWER MICHIGAN

CITY           SKY/WX    TMP DP  RH WIND       PRES   REMARKS
ADRIAN         LGT SNOW  28  26  92 E13       30.14R VSB 1   WCI  17
6HR MIN TEMP:  28; 6HR MAX TEMP:  30; 6HR PCP: TRACE;

ALMA           LGT SNOW  17  15  93 NE12      30.21S WCI   4
ANN ARBOR      LGT SNOW  25  23  92 NE7       30.15R FOG     WCI  17
BAD AXE        FLURRIES  18  15  86 NE12G18   30.23S WCI   6
6HR MIN TEMP:  18; 6HR MAX TEMP:  22;

CARO           LGT SNOW  19  15  85 NE10G16   30.21R WCI   8
DETROIT CITY   LGT SNOW  25  20  81 N9        30.18S WCI  15
6HR MIN TEMP:  25; 6HR MAX TEMP:  34; 6HR PCP:  0.02;

DETROIT        LGT SNOW  27  21  80 NE12      30.18R VSB 1   WCI  16
6HR MIN TEMP:  26; 6HR MAX TEMP:  32; 6HR PCP:  0.11;

FLINT          LGT SNOW  21  16  81 NE10      30.19S VSB 1   WCI  10
6HR MIN TEMP:  21; 6HR MAX TEMP:  28; 6HR PCP:  0.04;

GROSSE ILE     LGT SNOW  27  23  86 NE12      30.16R WCI  16
HILLSDALE      LGT SNOW  29  28  98 E9        30.09S VSB 1   WCI  20
6HR MIN TEMP:  29; 6HR MAX TEMP:  30;

HOWELL         LGT SNOW  21  19  91 NE13G21   30.15R WCI   9
6HR MIN TEMP:  21; 6HR MAX TEMP:  28;


CITY           SKY/WX    TMP DP  RH WIND       PRES   REMARKS
JACKSON        LGT SNOW  24  22  91 NE5       30.12S VSB 3/4 WCI  18
6HR MIN TEMP:  24; 6HR MAX TEMP:  29; 6HR PCP:  0.17;

LAMBERTVILLE   LGT SNOW  30  27  86 E7        30.15S WCI  23
LANSING        LGT SNOW  18  14  84 NE14      30.18R FOG     WCI   4
6HR MIN TEMP:  18; 6HR MAX TEMP:  27; 6HR PCP:  0.06;

LAPEER         LGT SNOW  19  17  90 N5        30.19S WCI  12
MASON          LGT SNOW  20  17  88 NE8       30.14S WCI  10
MONROE         LGT SNOW  27  25  93 E8        30.15R WCI  18
MT. CLEMENS    FLURRIES  21  19  93 N8        30.17S WCI  12
6HR MIN TEMP:  22; 6HR MAX TEMP:  31; 6HR PCP: TRACE;

PONTIAC        LGT SNOW  20  16  84 NE9       30.16R FOG     WCI   9
6HR MIN TEMP:  20; 6HR MAX TEMP:  27; 6HR PCP: TRACE;

PORT HOPE        N/A     18  11  74 NE24      30.24R WCI   0
6HR MIN TEMP:  18; 6HR MAX TEMP:  23;

PORT HURON     LGT SNOW  23  21  93 NE10G18   30.19F WCI  12
TRI CITIES     LGT SNOW  18  13  80 NE17      30.23S WCI   3
6HR MIN TEMP:  18; 6HR MAX TEMP:  26; 6HR PCP: TRACE;

TROY           LGT SNOW  24  20  84 NE8       30.20S WCI  15
SAGINAW HB     LGT SNOW  19  18  93 NE17G23   30.23R WCI   4
$$
MIZ043>046-050>051-056>058-064>065-071>073-077>080-011300-
SOUTHWEST LOWER MICHIGAN

CITY           SKY/WX    TMP DP  RH WIND       PRES   REMARKS
BATTLE CREEK   LGT SNOW  26  22  84 E9        30.10F VSB 1   WCI  17
6HR MIN TEMP:  26; 6HR MAX TEMP:  31; 6HR PCP:  0.11;

BENTON HARBOR  SNOW      27  27 100 E10       30.05F VSB 1/2 WCI  17
6HR MIN TEMP:  27; 6HR MAX TEMP:  29; 6HR PCP:  0.08;

BIG RAPIDS     LGT SNOW  15  11  86 E8        30.18S WCI   4
6HR MIN TEMP:  15; 6HR MAX TEMP:  22;

COLDWATER      LGT SNOW  29  28  96 NE9       30.08F WCI  20
6HR MIN TEMP:  29; 6HR MAX TEMP:  29;

FREMONT        LGT SNOW  16  12  84 E13G20    30.18S WCI   2
HOLLAND        LGT SNOW  24  20  84 NE12      30.11F VSB 1   WCI  13
6HR MIN TEMP:  24; 6HR MAX TEMP:  30; 6HR PCP:  0.14;

GRAND RAPIDS   LGT SNOW  21  17  84 E17       30.14F FOG     WCI   7
6HR MIN TEMP:  21; 6HR MAX TEMP:  28; 6HR PCP:  0.13;

IONIA          LGT SNOW  20  16  86 E16G22    30.16R WCI   5
KALAMAZOO      LGT SNOW  26  22  84 E8G20     30.09F VSB 3/4 WCI  18
6HR MIN TEMP:  26; 6HR MAX TEMP:  30; 6HR PCP:  0.15;

LUDINGTON      LGT SNOW  18  10  69 NE9G16    30.20S WCI   7
6HR MIN TEMP:  18; 6HR MAX TEMP:  22;

MARSHALL       LGT SNOW  24  22  93 NE8       30.10F VSB 1   WCI  14
MOUNT PLEASANT LGT SNOW  16  11  81 NE6       30.21S WCI   7
6HR MIN TEMP:  16; 6HR MAX TEMP:  24;

MUSKEGON       LGT SNOW  20  15  81 NE18G24   30.16S WCI   5
6HR MIN TEMP:  20; 6HR MAX TEMP:  29; 6HR PCP:  0.08;

SOUTH HAVEN    LGT SNOW  27  24  89 E9G20     30.07F VSB 1   WCI  18
$$
MIZ016>042-011300-
NORTHERN LOWER MICHIGAN

CITY           SKY/WX    TMP DP  RH WIND       PRES   REMARKS
ALPENA         CLOUDY     6   1  80 N10       30.33F WCI  -9
6HR MIN TEMP:   6; 6HR MAX TEMP:  14; 6HR PCP: TRACE;

BEAVER ISLAND  CLOUDY     1  -5  76 CALM      30.34F
6HR MIN TEMP:   1; 6HR MAX TEMP:  13;

BELLAIRE       CLOUDY    10   3  74 NE8       30.29S WCI  -2
6HR MIN TEMP:  10; 6HR MAX TEMP:  15;

CADILLAC       CLOUDY    11   4  75 NE9       30.17S WCI  -2
CHARLEVOIX     CLOUDY     6   0  77 E12       30.34S WCI -10
6HR MIN TEMP:   6; 6HR MAX TEMP:  15;

FRANKFORT      CLOUDY    13   7  77 NE7       30.25S WCI   3
GAYLORD        CLOUDY     5   1  83 NE10      30.23S WCI -10
6HR MIN TEMP:   5; 6HR MAX TEMP:  12; 6HR PCP: TRACE;

GRAYLING       CLOUDY     9   2  75 E12G20    30.24R WCI  -6
6HR MIN TEMP:   9; 6HR MAX TEMP:  13;

HARBOR SPRINGS CLOUDY     4  -2  75 NE7       30.32S WCI  -8
HOUGHTON LAKE  CLOUDY    10   4  76 NE13      30.21S WCI  -5
6HR MIN TEMP:  10; 6HR MAX TEMP:  15;

MANISTEE       CLOUDY    16   5  62 E12       30.22S WCI   3
OSCODA         LGT SNOW  13   8  79 N14       30.28S WCI  -2
PELLSTON       CLOUDY     3  -3  76 NE10      30.34S WCI -12
6HR MIN TEMP:   3; 6HR MAX TEMP:  10;

TRAVERSE CITY  CLOUDY    12   3  67 NE10      30.26F WCI  -1
6HR MIN TEMP:  12; 6HR MAX TEMP:  18;

$$
MIZ007>008-015-011300-
EASTERN UPPER MICHIGAN

CITY           SKY/WX    TMP DP  RH WIND       PRES   REMARKS
KINROSS        MOCLDY    -9 -15  77 NE12      30.38S WCI -29
6HR MIN TEMP:  -9; 6HR MAX TEMP:   1;

MACKINAC ISLAN CLOUDY    -1 -10  67 NE12      30.35F WCI -19
6HR MIN TEMP:  -1; 6HR MAX TEMP:   8;

NEWBERRY       MOCLDY    -8 -12  82 NE9       30.35F WCI -25
6HR MIN TEMP:  -8; 6HR MAX TEMP:   7;

S. S. MARIE    FAIR      -9 -20  58 NE7       30.40S WCI -24
6HR MIN TEMP:  -9; 6HR MAX TEMP:   1;

MUNISING         N/A      9   1  70 E9        30.35F WCI  -4
6HR MIN TEMP:   9; 6HR MAX TEMP:  14;

$$
MIZ004>006-011>014-085-011300-
CENTRAL UPPER MICHIGAN

CITY           SKY/WX    TMP DP  RH WIND       PRES   REMARKS
MANISTIQUE     CLOUDY     2  -4  75 MISG      30.34S
6HR MIN TEMP:   2; 6HR MAX TEMP:  12;

ESCANABA       CLOUDY     9   0  66 NE8       30.32F WCI  -4
6HR MIN TEMP:   9; 6HR MAX TEMP:  12;

MENOMINEE      CLOUDY    12   7  79 NE13      30.27F WCI  -3
6HR MIN TEMP:  10; 6HR MAX TEMP:  12;

SAWYER-GWINN   LGT SNOW   9   5  85 NE8       30.28F WCI  -4
$$
MIZ001>003-009>011-084-011300-
WESTERN UPPER MICHIGAN

CITY           SKY/WX    TMP DP  RH WIND       PRES   REMARKS
IRON MOUNTAIN  CLOUDY     8   2  76 N6        30.25F WCI  -2
6HR MIN TEMP:   6; 6HR MAX TEMP:   8;

HOUGHTON       CLOUDY     3  -3  76 NE9       30.34F WCI -12
6HR MIN TEMP:  -2; 6HR MAX TEMP:   4; 6HR PCP: TRACE;

COPPER HARBOR    N/A      9  -1  64 VRB6      30.40S WCI  -1
6HR MIN TEMP:   9; 6HR MAX TEMP:  11; 6HR PCP:  0.01;

IRONWOOD       MOCLDY     1   0  92 E3        30.28S
6HR MIN TEMP:   1; 6HR MAX TEMP:   9;

$$

ABBREVIATIONS USED IN REMARKS
   TC - TEMPERATURE IN CELSIUS
  WCI - WIND CHILL INDEX
   HX - HEAT INDEX
  VSB - VISIBILITY



USA.gov is the U.S. government's official web portal to all federal, state and local government web resources and services.